DLR-TUBSAT

Last updated on Sat Sep 12 2026 00:02:45 GMT+0000 (Coordinated Universal Time)

1 25757U 99029B 26254.54361164 .00000029 00000+0 18929-4 0 9997 2 25757 98.6766 252.9185 0015385 87.9214 272.3742 14.52444269445781
UTC large
Height (km)
Speed (km/s)
/
Latitude / Longitude
Inclination (degrees)
Orbital Period (minutes)
Azimuth
Elevation
Range (km)
Doppler Factor

Next 0 passes for location: London (51.5072 / 0.1276)

No passes found over London.
DLR-TUBSAT